Location: L�Adrech
(44.2500°N, 6.4167°E)
Time: 12:33:29
(UTC+00:00)

Cosmos 1315 Rocket - Pass Details

Date: 07 June 2020
Orbit: 529 x 568 km, 81.2° (Epoch: 11 July)

Event Time Altitude Azimuth Distance (km) Brightness Sun altitude
Rises 02:13:40 0° 338° (NNW) 2,685 6.8 -13.6°
Reaches altitude 10° 02:16:03 10° 326° (NW) 1,792 5.7 -13.3°
Maximum altitude 02:19:23 27° 268° (W) 1,058 3.9 -13.0°
Enters shadow 02:21:00 20° 230° (SW) 1,272 4.1 -12.8°
